Marshfield, WI

7:32 AM CST on February 12, 2016 (GMT -0600)
Marshfield Municipal

Weather History for KMFI - May, 2014

Change the Weather History Date:

Friday, May 2, 2014

  Actual Average Record
Temperature  
Mean Temperature 46 °F -  
Max Temperature 52 °F 63 °F 92 °F (1959)
Min Temperature 41 °F 37 °F 26 °F (1916)
Degree Days  
Heating Degree Days 18    
Moisture  
Dew Point 40 °F    
Average Humidity 82    
Maximum Humidity 93    
Minimum Humidity 59    
Precipitation  
Precipitation 0.00 in - - ()
Sea Level Pressure  
Sea Level Pressure 29.71 in    
Wind  
Wind Speed 8 mph (West)    
Max Wind Speed 15 mph    
Max Gust Speed 20 mph    
Visibility 10 miles    
Events Rain    
Averages and records for this station are not official NWS values.
T = Trace of Precipitation, MM = Missing Value Source: NWS Daily Summary

Daily Weather History Graph

Daily Weather History Graph

Search for Another Location

Airport or City:

Trip Planner

Search our weather history database for the weather conditions in past years. The results will help you decide how hot, cold, wet, or windy it might be!

Date:

Astronomy

May. 02, 2014 Rise Set
Actual Time 5:49 AM CDT 8:06 PM CDT
Civil Twilight 5:17 AM CDT 8:39 PM CDT
Nautical Twilight 4:37 AM CDT 9:19 PM CDT
Astronomical Twilight 3:52 AM CDT 10:04 PM CDT
Moon 8:24 AM CDT (5/2) 11:31 PM CDT (5/2)
Length of Visible Light 15h 21m
Length of Day
14h 17m
Waxing Crescent, 12% of the Moon is Illuminated
May 2
Waxing Crescent
May 6
First Quarter
May 14
Full
May 21
Last Quarter
May 28
New

Hourly Weather History & Observations

Time (CDT) Temp. Windchill Dew Point Humidity Pressure Visibility Wind Dir Wind Speed Gust Speed Precip Events Conditions
12:54 AM 43.0 °F 36.8 °F 39.0 °F 86% 29.78 in 10.0 mi NW 11.5 mph - N/A   Overcast
1:06 AM 43.0 °F 37.7 °F 39.0 °F 86% 29.75 in 10.0 mi WNW 9.2 mph - N/A   Overcast
1:14 AM 43.0 °F 37.7 °F 39.0 °F 86% 29.75 in 10.0 mi WNW 9.2 mph - N/A   Overcast
1:54 AM 42.1 °F 36.6 °F 39.0 °F 89% 29.76 in 10.0 mi WNW 9.2 mph - N/A   Overcast
2:35 AM 42.1 °F 37.1 °F 39.0 °F 89% 29.74 in 10.0 mi WNW 8.1 mph - N/A   Overcast
2:54 AM 42.1 °F 37.1 °F 39.0 °F 89% 29.76 in 10.0 mi WNW 8.1 mph - N/A   Overcast
3:37 AM 42.1 °F 37.7 °F 39.0 °F 89% 29.73 in 10.0 mi West 6.9 mph - N/A   Overcast
3:54 AM 42.1 °F 37.1 °F 39.0 °F 89% 29.76 in 10.0 mi WNW 8.1 mph - N/A   Overcast
4:02 AM 42.1 °F 37.7 °F 39.0 °F 89% 29.73 in 10.0 mi West 6.9 mph - N/A   Overcast
4:18 AM 42.1 °F 37.7 °F 39.0 °F 89% 29.73 in 10.0 mi West 6.9 mph - N/A   Overcast
4:47 AM 42.1 °F 38.4 °F 39.0 °F 89% 29.73 in 10.0 mi West 5.8 mph - N/A   Overcast
4:54 AM 42.1 °F 38.4 °F 39.0 °F 89% 29.75 in 10.0 mi West 5.8 mph - N/A   Overcast
5:52 AM 41.0 °F 37.1 °F 37.4 °F 87% 29.72 in 10.0 mi West 5.8 mph - 0.00 in   Overcast
5:54 AM 41.0 °F 37.1 °F 37.9 °F 89% 29.75 in 10.0 mi West 5.8 mph - 0.00 in   Overcast
6:18 AM 41.0 °F 36.4 °F 39.0 °F 93% 29.72 in 10.0 mi West 6.9 mph - N/A   Overcast
6:49 AM 41.0 °F 37.1 °F 39.2 °F 93% 29.72 in 9.0 mi West 5.8 mph - N/A   Overcast
6:54 AM 42.1 °F 37.7 °F 37.9 °F 85% 29.75 in 10.0 mi West 6.9 mph - N/A   Overcast
7:04 AM 42.1 °F 37.1 °F 39.0 °F 89% 29.72 in 10.0 mi WSW 8.1 mph - N/A   Overcast
7:14 AM 42.1 °F 37.7 °F 39.0 °F 89% 29.72 in 10.0 mi WSW 6.9 mph - N/A   Overcast
7:54 AM 43.0 °F 38.2 °F 39.0 °F 86% 29.75 in 10.0 mi West 8.1 mph - N/A   Overcast
8:54 AM 44.1 °F 39.5 °F 37.9 °F 79% 29.74 in 10.0 mi West 8.1 mph - N/A   Overcast
9:54 AM 46.9 °F - 39.0 °F 74% 29.73 in 10.0 mi WSW 11.5 mph - N/A   Overcast
10:54 AM 46.9 °F - 39.0 °F 74% 29.73 in 10.0 mi WSW 12.7 mph - N/A   Overcast
11:17 AM 46.9 °F - 39.9 °F 77% 29.71 in 10.0 mi West 10.4 mph - 0.00 in Rain Light Rain
11:54 AM 50.0 °F - 39.9 °F 68% 29.72 in 10.0 mi WSW 15.0 mph 19.6 mph 0.00 in   Overcast
12:26 PM 51.1 °F - 39.9 °F 66% 29.68 in 10.0 mi WSW 13.8 mph - N/A   Overcast
12:38 PM 51.1 °F - 39.0 °F 63% 29.68 in 10.0 mi WSW 9.2 mph 19.6 mph N/A   Overcast
12:54 PM 51.1 °F - 37.9 °F 61% 29.69 in 10.0 mi West 11.5 mph - N/A   Overcast
1:07 PM 51.1 °F - 37.9 °F 61% 29.67 in 10.0 mi WSW 13.8 mph - N/A   Overcast
1:17 PM 51.1 °F - 37.9 °F 61% 29.67 in 10.0 mi West 11.5 mph - N/A   Overcast
1:54 PM 52.0 °F - 37.9 °F 59% 29.68 in 10.0 mi West 10.4 mph - N/A   Overcast
2:52 PM 48.2 °F - 41.0 °F 76% 29.66 in 10.0 mi WSW 8.1 mph - 0.00 in Rain Light Rain
2:54 PM 48.9 °F - 41.0 °F 74% 29.68 in 10.0 mi WSW 8.1 mph - 0.00 in Rain Light Rain
3:54 PM 48.9 °F - 42.1 °F 77% 29.68 in 10.0 mi WSW 6.9 mph - 0.00 in   Overcast
4:54 PM 48.0 °F - 42.1 °F 80% 29.68 in 10.0 mi WSW 5.8 mph - 0.00 in Rain Light Rain
5:54 PM 48.0 °F - 43.0 °F 83% 29.68 in 9.0 mi South 4.6 mph - 0.00 in Rain Light Rain
6:54 PM 46.9 °F - 43.0 °F 86% 29.67 in 10.0 mi SSE 5.8 mph - 0.00 in Rain Light Rain
7:54 PM 46.0 °F 44.8 °F 43.0 °F 89% 29.67 in 10.0 mi SSE 3.5 mph - 0.00 in Rain Light Rain
8:54 PM 46.0 °F - 43.0 °F 89% 29.68 in 9.0 mi Calm Calm - 0.00 in Rain Light Rain
10:54 PM 45.0 °F - 43.0 °F 93% 29.68 in 10.0 mi Calm Calm - N/A   Overcast
11:23 PM 45.0 °F - 43.0 °F 93% 29.64 in 10.0 mi Calm Calm - 0.00 in   Overcast
11:54 PM 45.0 °F - 43.0 °F 93% 29.66 in 10.0 mi Calm Calm - 0.00 in   Overcast